{"data":{"norad_id":48670,"epoch":"2026-09-19T16:40:36.483744Z","epoch_age_seconds":106744,"freshness":"FRESH","line1":"1 48670U 21044AJ  26262.69486671 -.00000302  00000+0  20330-5 0  9999","line2":"2 48670  53.1586 281.3463 0000958 102.2833 257.8276 15.31701674293683","mean_motion":15.31701674,"eccentricity":9.58e-5,"inclination_deg":53.1586,"raan_deg":281.3463,"arg_perigee_deg":102.2833,"mean_anomaly_deg":257.8276,"bstar":2.033e-6,"rev_number":29368,"period_min":94.013085213877,"perigee_km":470.07888318521,"apogee_km":471.39112706139,"semimajor_km":6848.8720051233,"source":"CELESTRAK","updated_at":"2026-09-20T09:00:39.241213Z"}}